Volver al catálogo

CZ-6A DEB

ActivoPO
NORAD 61163·DEBRIS·🇨🇳 China

Lanzado Aug 6, 2024 desde Taiyuan Satellite Launch Center

Loading…

Próximos Pases (próximas 24 horas)

TLE

ActualizadoSource: Space-Track

Época: Sep 13, 2026, 09:21 UTC

1 61163U 24140RH  26256.38985221  .00101448  00000-0  18571-2 0  9999
2 61163  88.6801 219.4345 0069080  66.7154 294.1356 15.46326371113373

Sigue CZ-6A DEB en tiempo real con AllMySat

Download on the App Store